Location: Epalinges
(46.5518°N, 6.6683°E)
Time: 02:35:17
(UTC+00:00)

Cosmos 1932 - Pass Details

Date: 20 June 2021
Orbit: 941 x 988 km, 65.0° (Epoch: 25 July)

Event Time Altitude Azimuth Distance (km) Brightness Sun altitude
Rises 00:46:29 0° 322° (NW) 3,626 8.0 -18.2°
Reaches altitude 10° 00:49:03 10° 320° (NW) 2,673 7.2 -18.0°
Maximum altitude 00:55:14 70° 239° (WSW) 1,003 4.4 -17.7°
Enters shadow 01:00:03 17° 158° (SSE) 2,175 5.9 -17.4°
